Preview of NWS' New Version of Forecast
This preview is not operational and should not be used for support decisions.

Regional Weather Roundup (RWR)

Issued by Gray - Portland, ME (GYX)

                            
000
ASUS41 KGYX 181610
RWRGYX
WEATHER ROUNDUP FOR MAINE AND NEW HAMPSHIRE
NATIONAL WEATHER SERVICE GRAY ME
1200 PM EDT THU APR 18 2019

MEZ002-005-006-010-012-015-018-020-021-024-026-027-029-181700-
MAINE
  
CITY           SKY/WX    TMP DP  RH WIND       PRES   REMARKS
PORTLAND       CLOUDY    45  36  70 SE8       30.24F                  
SANFORD        LGT RAIN  46  25  43 S8G17     30.24S                  
BAR HARBOR     PTSUNNY   48  32  53 SW12      30.26S                  
WISCASSET      CLOUDY    47  30  51 S6        30.26F                  
ROCKLAND       CLOUDY    45  37  73 S8        30.26S                  
FRYEBURG       CLOUDY    45  25  45 S6        30.21F                  
LEWISTONAUBURN CLOUDY    46  27  47 S7        30.22F                  
AUGUSTA        CLOUDY    48  24  39 S12G20    30.22F                  
WATERVILLE     CLOUDY    49  25  39 S5        30.19F                  
BANGOR         CLOUDY    52  30  43 S14       30.22F                  
GREENVILLE       N/A     44  24  45 VRB7      30.13S                  
MILLINOCKET    FAIR      52  24  33 S7        30.19F                  
HOULTON        FAIR      50  19  29 S8        30.19F                  
PRESQUE ISLE   FAIR      45  25  45 SE10      30.18F                  
FRENCHVILLE    PTSUNNY   43  22  43 SE10      30.14F                  
CARIBOU        PTSUNNY   45  23  42 S12       30.17F                  
$$

NHZ002-005-008-009-011-012-014-181700-
NEW HAMPSHIRE
  
CITY           SKY/WX    TMP DP  RH WIND       PRES   REMARKS
PORTSMOUTH     LGT RAIN  45  34  67 S13G21    30.23R                  
ROCHESTER      CLOUDY    45  32  60 VRB7      30.22F                  
MANCHESTER     CLOUDY    48  31  51 SE10      30.20S                  
CONCORD        CLOUDY    45  29  53 S9        30.21S                  
LACONIA        CLOUDY    40  34  79 CALM      30.21S                  
PLYMOUTH       CLOUDY    36  33  88 CALM      30.20F                  
BERLIN         LGT RAIN  44  32  62 S6        30.10F                  
WHITEFIELD     CLOUDY    47  26  44 SE15G25   30.08F                  
JAFFREY        CLOUDY    47  24  40 SE9G18    30.16F                  
KEENE          CLOUDY    47  35  63 S3        30.16F                  
LEBANON        CLOUDY    46  35  65 CALM      30.13F                  
MT WASHINGTON  CLOUDY    18  16  93 S41G53      N/A  WCI  -5          
$$

VTZ005-007-008-181700-
VERMONT
  
CITY           SKY/WX    TMP DP  RH WIND       PRES   REMARKS
ST JOHNSBURY     N/A     42  35  76 MISG      30.08F                  
MONTPELIER     CLOUDY    42  30  62 S10G30    30.10F                  
BURLINGTON     CLOUDY    54  28  36 S30G43    29.98R                  
$$

MAZ007-012-024-CTZ003-RIZ002-NYZ038-NYZ072-181700-
SOUTHERN NEW ENGLAND AND NY
  
CITY           SKY/WX    TMP DP  RH WIND       PRES   REMARKS
BOSTON         CLOUDY    50  32  50 S15       30.25R                  
WORCESTER      CLOUDY    46  27  47 SE10      30.17F                  
NANTUCKET      CLOUDY    47  38  71 SE22      30.25F                  
PROVIDENCE     CLOUDY    49  39  68 S15G22    30.23S                  
HARTFORD       CLOUDY    53  37  54 S15G24    30.17S                  
ALBANY         CLOUDY    55  30  38 S16G30    30.07S                  
NEW YORK CITY  CLOUDY    56  46  69 E8        30.09S                  
$$

ANZ081-ANZ082-ANZ150-NHZ014-MEZ023>029-181700-
COASTAL MARINE OBSERVATIONS
  
STATION/POSITION TIME  TEMP    WIND        PRES    WAVE
                       AIR SEA DIR/SP/G            HT/PER
                 (UTC) (F)     (DEG/KT/KT) (MB)    (FT/S)
ISLE OF SHOALS   1500   42     140/ 14/ 16 1023.8F
$$

.............KEY..............
   WCI - WIND CHILL
   TC  - TEMPERATURE IN CELSIUS
   VSB - VISIBILITY IN MILES
   HX  - HEAT INDEX
   FAIR- INDICATES FEW OR NO CLOUDS BELOW 12,000 FT, WITH NO 
         SIGNIFICANT WEATHER AND/OR OBSTRUCTIONS TO VISIBILITY.